TimeAKST,TemperatureF,Dew PointF,Humidity,Sea Level PressureIn,VisibilityMPH,Wind Direction,Wind SpeedMPH,Gust SpeedMPH,PrecipitationIn,Events,Conditions,WindDirDegrees,DateUTC
12:16 AM,12.2,10.4,92,29.68,3.0,ENE,3.5,-,N/A,,Overcast,60,2012-11-10 09:16:00
12:36 AM,12.2,10.4,92,29.67,7.0,East,4.6,-,N/A,,Overcast,90,2012-11-10 09:36:00
12:56 AM,12.2,10.4,92,29.67,9.0,East,4.6,-,N/A,,Overcast,90,2012-11-10 09:56:00
1:16 AM,12.2,10.4,92,29.66,4.0,East,3.5,-,N/A,,Overcast,80,2012-11-10 10:16:00
1:36 AM,12.2,10.4,92,29.66,4.0,East,4.6,-,N/A,,Overcast,90,2012-11-10 10:36:00
1:56 AM,12.2,10.4,92,29.66,10.0,ENE,3.5,-,N/A,,Overcast,60,2012-11-10 10:56:00
2:16 AM,12.2,10.4,92,29.65,7.0,Calm,Calm,-,N/A,,Overcast,0,2012-11-10 11:16:00
2:36 AM,14.0,10.4,86,29.64,3.0,Calm,Calm,-,N/A,,Overcast,0,2012-11-10 11:36:00
2:56 AM,14.0,12.2,93,29.64,3.0,Calm,Calm,-,N/A,,Overcast,0,2012-11-10 11:56:00
3:16 AM,14.0,12.2,93,29.63,4.0,Calm,Calm,-,N/A,,Overcast,0,2012-11-10 12:16:00
3:36 AM,14.0,12.2,93,29.63,4.0,Calm,Calm,-,N/A,,Overcast,0,2012-11-10 12:36:00
3:56 AM,14.0,12.2,93,29.62,3.0,Calm,Calm,-,N/A,,Overcast,0,2012-11-10 12:56:00
4:16 AM,14.0,12.2,93,29.61,5.0,NE,3.5,-,N/A,,Overcast,40,2012-11-10 13:16:00
4:36 AM,15.8,12.2,86,29.60,6.0,NE,3.5,-,N/A,,Overcast,40,2012-11-10 13:36:00
4:56 AM,15.8,12.2,86,29.60,5.0,East,4.6,-,N/A,,Overcast,80,2012-11-10 13:56:00
5:16 AM,15.8,14.0,93,29.59,8.0,East,5.8,-,N/A,,Overcast,90,2012-11-10 14:16:00
5:36 AM,14.0,12.2,93,29.60,6.0,NE,4.6,-,N/A,,Overcast,40,2012-11-10 14:36:00
5:56 AM,14.0,12.2,93,29.59,6.0,NE,3.5,-,N/A,,Overcast,50,2012-11-10 14:56:00
6:16 AM,14.0,12.2,93,29.59,3.0,ENE,3.5,-,N/A,,Overcast,60,2012-11-10 15:16:00
6:36 AM,14.0,12.2,93,29.58,3.0,Calm,Calm,-,N/A,,Overcast,0,2012-11-10 15:36:00
6:56 AM,15.8,12.2,86,29.58,3.0,Calm,Calm,-,N/A,,Overcast,0,2012-11-10 15:56:00
7:16 AM,15.8,12.2,86,29.57,2.0,Calm,Calm,-,N/A,,Overcast,0,2012-11-10 16:16:00
7:36 AM,15.8,12.2,86,29.57,3.0,Calm,Calm,-,N/A,,Overcast,0,2012-11-10 16:36:00
7:56 AM,15.8,12.2,86,29.57,5.0,Calm,Calm,-,N/A,,Overcast,0,2012-11-10 16:56:00
8:16 AM,15.8,12.2,86,29.57,10.0,NNE,3.5,-,N/A,,Overcast,30,2012-11-10 17:16:00
8:36 AM,15.8,14.0,93,29.57,10.0,Calm,Calm,-,N/A,,Overcast,0,2012-11-10 17:36:00
8:56 AM,15.8,14.0,93,29.57,10.0,NE,3.5,-,N/A,,Overcast,40,2012-11-10 17:56:00
9:16 AM,15.8,14.0,93,29.57,10.0,Calm,Calm,-,N/A,,Overcast,0,2012-11-10 18:16:00
9:36 AM,17.6,15.8,93,29.56,10.0,Calm,Calm,-,N/A,,Overcast,0,2012-11-10 18:36:00
9:56 AM,17.6,14.0,86,29.56,10.0,Calm,Calm,-,N/A,,Overcast,0,2012-11-10 18:56:00
10:16 AM,17.6,15.8,93,29.56,10.0,Calm,Calm,-,N/A,,Overcast,0,2012-11-10 19:16:00
10:36 AM,17.6,15.8,93,29.56,9.0,Calm,Calm,-,N/A,,Overcast,0,2012-11-10 19:36:00
10:56 AM,17.6,15.8,93,29.56,8.0,Calm,Calm,-,N/A,,Overcast,0,2012-11-10 19:56:00
11:16 AM,17.6,15.8,93,29.56,8.0,ENE,3.5,-,N/A,,Overcast,60,2012-11-10 20:16:00
11:36 AM,17.6,15.8,93,29.56,10.0,Calm,Calm,-,N/A,,Overcast,0,2012-11-10 20:36:00
11:56 AM,17.6,15.8,93,29.55,8.0,East,3.5,-,N/A,,Overcast,90,2012-11-10 20:56:00
12:16 PM,17.6,15.8,93,29.55,10.0,Calm,Calm,-,N/A,,Overcast,0,2012-11-10 21:16:00
12:36 PM,17.6,15.8,93,29.55,10.0,Calm,Calm,-,N/A,,Overcast,0,2012-11-10 21:36:00
12:56 PM,19.4,15.8,86,29.55,10.0,Calm,Calm,-,N/A,,Overcast,0,2012-11-10 21:56:00
1:16 PM,19.4,15.8,86,29.55,10.0,ESE,3.5,-,N/A,,Overcast,120,2012-11-10 22:16:00
1:36 PM,19.4,15.8,86,29.54,10.0,Calm,Calm,-,N/A,,Scattered Clouds,0,2012-11-10 22:36:00
1:56 PM,19.4,15.8,86,29.54,10.0,Calm,Calm,-,N/A,,Clear,0,2012-11-10 22:56:00
2:16 PM,19.4,15.8,86,29.53,10.0,Calm,Calm,-,N/A,,Mostly Cloudy,0,2012-11-10 23:16:00
2:36 PM,19.4,15.8,86,29.53,10.0,Calm,Calm,-,N/A,,Overcast,0,2012-11-10 23:36:00
2:56 PM,19.4,15.8,86,29.53,10.0,Calm,Calm,-,N/A,,Overcast,0,2012-11-10 23:56:00
3:16 PM,19.4,15.8,86,29.52,10.0,Calm,Calm,-,N/A,,Overcast,0,2012-11-11 00:16:00
3:36 PM,19.4,15.8,86,29.52,10.0,Calm,Calm,-,N/A,,Overcast,0,2012-11-11 00:36:00
3:56 PM,19.4,17.6,93,29.52,10.0,Calm,Calm,-,N/A,,Overcast,0,2012-11-11 00:56:00
4:16 PM,19.4,17.6,93,29.51,10.0,Calm,Calm,-,N/A,,Overcast,0,2012-11-11 01:16:00
4:36 PM,19.4,15.8,86,29.51,10.0,Calm,Calm,-,N/A,,Overcast,0,2012-11-11 01:36:00
4:56 PM,19.4,15.8,86,29.51,10.0,Calm,Calm,-,N/A,,Overcast,0,2012-11-11 01:56:00
5:16 PM,19.4,15.8,86,29.51,10.0,Calm,Calm,-,N/A,,Overcast,0,2012-11-11 02:16:00
5:36 PM,19.4,17.6,93,29.51,10.0,Calm,Calm,-,N/A,,Scattered Clouds,0,2012-11-11 02:36:00
5:56 PM,19.4,15.8,86,29.51,10.0,North,3.5,-,N/A,,Mostly Cloudy,10,2012-11-11 02:56:00
6:16 PM,19.4,15.8,86,29.51,10.0,North,3.5,-,N/A,,Mostly Cloudy,360,2012-11-11 03:16:00
6:36 PM,19.4,17.6,93,29.51,10.0,Calm,Calm,-,N/A,,Partly Cloudy,0,2012-11-11 03:36:00
6:56 PM,19.4,15.8,86,29.51,10.0,Calm,Calm,-,N/A,,Clear,0,2012-11-11 03:56:00
7:16 PM,17.6,15.8,93,29.51,10.0,Calm,Calm,-,N/A,,Clear,0,2012-11-11 04:16:00
7:36 PM,19.4,17.6,93,29.51,10.0,Calm,Calm,-,N/A,,Clear,0,2012-11-11 04:36:00
7:56 PM,17.6,17.6,100,29.50,10.0,Calm,Calm,-,N/A,,Clear,0,2012-11-11 04:56:00
8:16 PM,19.4,17.6,93,29.50,10.0,Calm,Calm,-,N/A,,Clear,0,2012-11-11 05:16:00
8:36 PM,17.6,15.8,93,29.50,10.0,Calm,Calm,-,N/A,,Clear,0,2012-11-11 05:36:00
8:56 PM,17.6,12.2,79,29.50,10.0,Calm,Calm,-,N/A,,Mostly Cloudy,0,2012-11-11 05:56:00
9:16 PM,19.4,15.8,86,29.50,10.0,Calm,Calm,-,N/A,,Overcast,0,2012-11-11 06:16:00
9:36 PM,19.4,17.6,93,29.50,10.0,North,3.5,-,N/A,,Overcast,360,2012-11-11 06:36:00
9:56 PM,19.4,17.6,93,29.50,10.0,Calm,Calm,-,N/A,,Overcast,0,2012-11-11 06:56:00
10:16 PM,17.6,15.8,93,29.50,10.0,Calm,Calm,-,N/A,,Overcast,0,2012-11-11 07:16:00
10:36 PM,17.6,15.8,93,29.50,10.0,Calm,Calm,-,N/A,,Mostly Cloudy,0,2012-11-11 07:36:00
10:56 PM,19.4,19.4,100,29.50,10.0,NE,3.5,-,N/A,,Overcast,50,2012-11-11 07:56:00
11:16 PM,19.4,19.4,100,29.50,10.0,ENE,4.6,-,N/A,,Overcast,60,2012-11-11 08:16:00
11:36 PM,19.4,19.4,100,29.50,10.0,NE,3.5,-,N/A,,Overcast,50,2012-11-11 08:36:00
11:56 PM,19.4,17.6,93,29.50,10.0,ENE,4.6,-,N/A,,Overcast,60,2012-11-11 08:56:00